RH
62 86 89 58 60 55 81 98 96 82 44 45 49 45 36 61 58 54 36 33 41 54 83 88 90 81 73 72 78 83 85 87 84 82 84 87 84 85 84 72 65 65 60 60
67 84 47 53 55 68 79 96 95 76 52 53 42 53 38 57 63 63 59 45 52 86 94 97 95 94 90 88 88 93 90 90 85 84 82 83 83 83 80 74 67 64 64 67
68 53 51 87 99 96 94 83 84 100 73 59 61 91 75 54 56 59 62 60 71 78 94 96 96 95 98 92 96 87 88 92 91 90 91 82 82 88 90 86 81 78 71 73
68 52 81 92 100 96 94 69 89 95 71 86 60 87 88 71 68 80 72 73 80 84 85 89 92 97 98 92 95 96 96 94 93 89 92 90 92 91 93 89 90 88 81 84
92 82 86 94 97 89 96 68 71 85 96 87 78 72 88 89 84 92 88 88 83 84 84 88 91 85 82 82 95 92 90 91 89 88 91 94 94 94 97 99 96 94 92 93
92 59 72 78 66 69 75 81 84 85 95 95 98 75 96 98 96 80 84 84 71 66 83 88 74 64 67 66 66 68 73 81 80 81 87 88 94 96 96 95 98 96 95 96
64 83 80 81 94 80 84 78 97 100 99 98 98 65 96 93 65 78 90 84 76 72 75 85 78 70 67 66 67 72 71 72 75 86 87 85 82 91 92 84 90 88 87 92
99 100 97 82 84 70 86 62 84 94 91 92 67 91 93 87 82 88 80 79 81 78 78 75 65 68 62 63 59 56 56 56 54 58 65 71 84 94 86 84 86 84 86 87
100 100 87 72 58 60 60 66 44 56 45 62 77 87 70 73 84 81 81 79 78 82 77 67 67 50 49 49 50 51 51 53 53 54 54 55 59 72 78 77 84 90 89 93
90 100 81 57 54 50 54 40 63 64 77 74 62 62 68 71 81 81 86 86 80 68 60 56 47 47 47 46 46 44 45 47 48 51 52 53 58 57 59 68 73 73 77 84
57 69 64 53 62 63 53 46 40 41 52 49 56 61 40 48 52 60 64 67 67 63 49 43 40 38 37 38 44 46 47 49 50 47 46 49 52 56 57 56 58 66 71 77
49 54 72 61 48 49 53 40 35 50 53 43 43 56 36 42 44 48 50 48 46 45 44 41 39 37 39 40 40 43 46 47 48 48 47 47 47 51 53 55 55 55 62 69
43 52 81 62 50 43 45 39 35 36 43 47 48 52 35 42 47 45 46 42 42 43 42 40 39 40 42 43 44 45 46 47 48 49 48 48 50 52 50 52 54 54 59 60
52 50 63 65 70 55 52 43 35 43 58 32 41 50 43 46 50 47 43 40 41 42 44 44 42 41 41 45 46 46 48 49 49 50 51 53 54 54 54 54 54 55 54 59
43 70 70 47 48 51 49 47 41 53 36 43 38 41 43 43 45 45 41 40 41 43 45 45 46 44 44 47 48 48 50 50 51 52 54 57 56 55 56 58 58 57 58 58
43 78 60 80 42 46 55 48 44 45 40 36 36 42 34 36 38 44 40 43 45 46 46 46 45 46 47 49 53 54 55 55 52 54 58 60 59 60 63 62 65 62 62 60
49 60 80 70 45 45 48 49 51 53 47 44 40 45 36 46 48 45 42 44 46 47 48 47 46 47 49 51 54 58 57 55 54 58 59 60 64 66 64 63 65 68 67 66
46 52 68 78 54 65 44 43 48 48 49 47 49 47 43 43 46 44 41 43 45 47 47 46 46 49 49 46 50 52 57 55 57 59 59 60 68 73 70 68 71 71 72 72
37 38 52 62 44 38 41 46 46 49 45 44 47 48 47 47 47 48 45 46 47 49 48 49 49 49 44 40 41 46 48 50 51 51 58 62 65 75 77 80 78 77 82 80
42 38 42 41 48 34 40 44 44 46 41 43 45 48 49 48 55 50 47 49 48 50 50 50 49 38 41 34 39 47 46 47 44 47 51 52 60 64 73 76 79 81 85 86
50 47 51 45 48 40 39 44 44 48 47 44 43 45 47 49 48 49 49 49 52 52 49 43 38 39 36 34 39 45 44 45 43 45 46 48 52 60 67 75 78 82 86 89
49 49 45 49 54 52 40 50 49 45 46 43 46 46 48 45 48 50 50 53 51 46 43 38 38 39 37 36 38 42 43 40 35 37 40 44 45 47 50 67 73 75 80 80
47 45 42 43 41 40 39 43 46 45 44 49 47 48 49 51 51 50 53 45 40 40 39 37 36 35 32 31 32 35 34 34 36 37 37 35 36 38 38 41 49 67 79 89
46 46 47 47 38 42 41 40 45 47 47 50 50 50 52 52 48 47 42 40 38 38 40 37 35 34 34 31 30 32 34 34 37 39 38 36 38 40 40 40 46 61 75 85
44 51 46 46 38 43 43 43 43 48 52 53 54 52 52 51 44 41 40 40 40 40 40 40 39 40 39 37 38 35 35 35 39 40 40 40 40 38 41 43 48 55 60 69
44 42 47 34 40 42 47 47 47 51 56 54 53 52 48 49 46 44 45 40 40 40 38 39 40 42 43 43 43 40 38 38 38 40 43 44 47 48 50 54 55 60 70 74
Wind_Speed
13 7 11 17 19 20 10 13 15 11 14 18 23 19 14 6 7 12 16 15 7 9 3 7 7 5 5 8 11 10 11 9 5 4 5 4 7 7 5 5 6 6 6 5
6 14 17 11 13 17 15 14 16 14 11 11 20 17 13 2 7 9 13 10 9 9 8 6 8 5 2 1 6 6 5 4 3 2 5 2 2 2 4 3 2 2 3 2
13 12 10 10 10 11 13 17 12 7 12 15 14 3 5 7 7 4 6 2 2 11 12 5 1 8 2 5 3 6 6 2 3 4 1 0 1 2 3 2 2 3 3 1
10 11 10 9 8 10 11 12 10 7 9 4 11 6 2 5 8 4 6 5 5 10 11 5 3 3 4 3 2 2 4 6 8 8 5 5 4 3 2 3 2 0 1 0
2 7 6 5 4 10 3 6 8 4 2 8 7 4 3 7 7 8 6 8 6 10 12 11 5 3 3 1 5 6 10 11 12 13 11 6 7 4 1 1 5 5 5 4
10 8 5 5 9 6 12 6 7 8 4 4 2 4 5 4 6 5 6 6 8 13 11 11 2 4 4 1 4 5 6 9 9 11 15 16 15 8 7 10 5 6 5 5
3 1 4 3 5 5 3 6 2 4 1 5 3 6 5 4 5 2 5 6 11 13 13 8 4 6 5 6 5 5 5 3 5 4 5 4 11 15 16 12 8 7 7 6
4 1 3 1 5 3 6 5 5 2 4 4 7 5 5 5 3 9 8 11 12 13 11 9 6 6 7 10 8 8 7 8 7 6 6 4 5 3 4 8 7 7 7 8
3 4 5 5 6 5 4 3 6 3 8 7 3 5 8 9 9 9 11 13 14 13 9 8 7 7 11 10 11 9 9 8 8 7 6 7 6 6 4 3 3 2 4 3
1 1 3 4 4 5 4 7 3 1 2 6 5 10 7 9 10 9 9 12 12 10 10 9 6 8 9 10 9 9 10 9 9 8 8 5 5 6 4 3 4 4 4 3
5 1 2 3 7 7 4 5 1 1 4 3 5 4 6 9 11 13 12 12 11 9 7 7 7 8 9 9 9 10 11 10 9 9 7 7 6 5 6 4 4 4 4 4
5 5 4 3 1 1 4 10 7 4 4 4 9 5 1 8 10 10 10 10 9 9 6 7 7 9 9 9 10 10 9 9 10 9 8 8 7 6 5 4 5 4 5 3
5 4 1 2 4 2 6 11 11 3 3 5 3 8 8 11 9 9 9 9 8 8 6 6 6 7 8 7 7 7 8 9 7 7 8 8 8 7 7 6 5 3 5 5
5 6 6 7 5 5 6 12 14 8 6 8 8 13 13 11 10 8 8 8 7 6 6 6 5 6 7 7 7 8 9 8 8 8 7 7 8 9 10 9 8 7 5 5
4 5 5 8 6 5 7 10 12 12 11 9 8 10 11 10 10 8 7 7 6 5 4 6 7 7 8 8 8 8 9 10 11 11 10 10 9 8 8 8 9 7 6 6
3 3 1 4 6 5 9 9 7 9 8 7 8 10 7 11 10 8 7 4 1 2 4 6 7 7 7 8 9 9 9 10 10 10 10 10 11 12 11 10 9 8 7 7
4 2 3 3 4 2 2 9 7 3 6 6 3 5 8 7 7 8 6 4 2 2 5 7 8 8 8 8 8 9 9 9 9 8 9 9 11 11 10 11 11 10 8 7
3 3 1 2 5 1 2 2 2 4 2 2 4 3 4 4 2 2 1 2 0 3 4 6 8 9 8 8 8 8 8 8 7 7 8 8 9 10 11 10 10 10 8 8
7 2 2 2 3 3 4 3 1 3 3 4 4 4 5 4 4 5 3 2 1 2 3 4 5 7 8 10 11 10 9 8 8 8 9 9 8 9 10 10 10 10 8 9
5 3 4 2 2 2 5 4 1 2 2 5 4 7 7 6 5 5 6 2 2 3 4 5 5 5 4 5 7 8 9 10 11 11 11 10 10 9 9 10 10 9 8 8
2 3 3 2 2 1 4 4 1 3 4 3 2 3 4 3 5 5 3 0 1 2 2 4 4 4 5 6 6 8 8 8 8 10 11 11 10 10 8 10 9 9 8 7
3 3 2 1 2 2 8 4 4 4 2 1 1 1 3 3 2 3 3 3 3 3 3 4 5 5 6 6 7 9 9 8 9 10 11 10 10 8 8 9 9 9 9 9
2 3 4 3 4 3 7 2 3 3 2 1 2 1 1 3 3 3 3 3 4 5 5 5 7 9 9 9 8 10 10 9 10 11 11 11 11 10 9 10 10 9 8 6
3 3 4 4 4 6 5 4 3 1 1 1 1 0 1 5 3 4 4 5 5 6 7 7 9 11 11 9 9 10 10 11 11 12 12 10 10 10 10 7 7 6 7 8
3 5 4 6 9 3 6 5 2 4 2 2 2 0 2 3 4 4 5 6 7 8 8 9 10 11 12 11 11 11 11 11 11 11 11 11 9 10 9 8 7 7 7 9
8 6 5 2 5 2 4 2 2 5 5 3 3 2 1 2 5 5 7 7 8 10 10 11 11 12 12 11 12 12 12 12 12 11 9 8 8 8 8 8 8 11 12 15
Wind_Direction
196 215 223 233 226 253 271 260 280 272 243 212 215 220 216 25 357 275 244 239 246 207 205 173 203 159 156 147 172 170 178 183 169 244 207 201 197 177 183 177 187 184 204 205
216 245 252 308 275 268 256 252 259 269 234 227 202 226 204 189 303 317 291 251 251 148 109 54 134 154 268 181 175 170 191 157 164 266 203 107 129 165 178 172 176 224 250 224
253 261 318 254 266 249 243 248 262 270 191 217 155 213 231 246 260 265 289 44 211 141 110 104 37 198 317 273 272 242 183 179 255 246 6 85 208 153 167 161 113 33 326 268
273 280 273 271 259 226 246 229 227 34 165 162 207 174 163 319 278 217 219 141 122 102 90 103 6 77 259 223 174 287 264 231 250 224 212 234 246 243 218 170 163 271 330 271
307 287 310 282 274 296 134 104 107 169 260 134 191 233 98 20 233 174 128 106 134 102 92 54 3 352 314 239 234 215 234 230 231 222 226 225 246 233 228 144 218 201 208 227
247 266 344 327 306 331 157 166 223 217 235 117 49 298 48 332 303 316 68 75 78 90 85 82 75 111 102 90 169 205 221 246 234 225 212 218 220 223 215 235 201 210 223 231
266 7 321 296 336 327 242 198 209 207 138 64 336 66 52 351 305 307 88 125 85 69 73 77 41 64 53 76 70 100 86 69 60 35 17 243 220 208 218 218 211 214 224 227
321 139 337 116 231 240 195 292 309 18 112 100 85 24 27 85 35 81 70 92 80 73 72 53 55 75 70 55 54 77 72 60 44 49 44 36 25 345 187 213 210 219 220 224
324 36 303 249 341 356 351 291 336 93 91 85 85 138 114 84 87 86 80 75 74 71 64 82 59 42 64 67 57 50 60 61 51 38 36 30 32 24 19 339 292 230 253 223
359 62 298 307 290 229 255 331 280 21 111 76 69 47 79 97 96 98 89 83 83 76 71 68 55 57 57 56 56 55 55 51 36 31 30 9 26 4 354 345 292 267 257 248
305 299 302 290 17 4 340 9 319 326 1 89 118 90 52 104 110 109 105 103 95 89 83 76 56 51 51 50 50 47 40 35 30 23 12 6 12 353 339 324 316 288 277 245
33 342 44 32 337 272 275 18 6 330 37 14 83 98 150 107 110 112 108 99 91 92 87 75 63 54 43 37 34 38 30 33 22 7 360 7 359 347 325 316 300 305 291 263
2 14 244 151 181 149 41 19 10 20 36 29 349 120 155 129 124 117 113 103 90 85 82 79 67 56 45 32 30 30 24 23 20 11 356 355 357 351 329 313 301 288 286 271
284 42 32 41 45 326 21 20 27 37 31 46 27 130 154 150 138 135 128 115 113 101 74 54 50 50 47 33 24 15 14 7 4 358 355 358 347 340 339 335 319 309 291 276
344 63 44 55 43 56 41 32 29 49 30 55 95 134 159 159 153 159 150 146 135 104 66 52 37 29 22 20 15 6 4 357 352 353 348 349 344 345 335 328 316 304 287 274
18 116 60 50 36 86 75 42 43 38 32 73 91 97 156 165 157 151 164 150 122 76 45 26 17 17 12 14 10 357 357 353 345 349 344 348 348 343 336 329 325 302 285 280
27 82 349 63 2 342 105 19 23 44 31 346 29 49 150 155 173 184 166 173 152 19 6 6 2 2 2 5 356 354 348 344 344 341 345 349 347 339 332 327 318 312 292 271
95 82 45 339 270 59 71 44 303 317 358 58 80 86 185 187 129 133 188 216 42 2 354 352 349 344 353 1 4 351 350 343 336 337 339 342 341 331 330 326 325 320 308 279
11 338 65 301 36 110 155 140 262 331 147 177 163 155 140 120 183 214 169 56 7 335 341 335 340 347 344 357 347 339 336 340 337 340 330 329 327 321 323 326 321 317 309 298
340 329 301 323 358 310 65 110 68 292 192 145 167 161 166 173 230 86 153 144 333 346 340 334 338 321 307 326 318 315 322 329 331 329 323 320 314 317 312 312 315 308 303 295
319 297 258 227 298 126 106 104 7 261 50 119 158 137 165 215 29 87 88 185 342 328 315 321 303 301 306 308 302 293 296 291 301 305 306 305 313 317 318 310 310 309 302 284
292 282 202 204 248 234 149 137 251 44 58 110 157 196 252 324 0 356 351 327 327 309 290 278 290 289 286 276 274 279 282 293 299 301 304 304 311 311 307 304 303 309 309 299
249 323 345 280 32 77 189 355 63 14 11 169 246 155 263 287 294 324 310 287 293 295 296 298 294 290 285 278 275 284 294 309 304 300 299 300 299 301 299 305 305 311 307 293
203 200 251 313 145 229 213 215 248 232 264 39 90 353 237 287 320 306 293 289 286 287 286 285 279 276 278 278 278 286 295 298 297 296 294 295 296 297 299 295 298 290 296 296
20 156 240 265 266 229 234 244 258 202 193 170 118 150 276 305 301 294 288 279 278 280 281 277 277 278 281 292 295 294 294 293 289 285 287 289 287 287 289 286 285 286 279 277
186 201 204 289 68 30 92 43 268 206 203 192 201 207 229 277 284 292 284 287 284 283 286 280 277 278 284 291 290 289 291 291 290 288 287 283 288 286 285 286 285 279 285 290